User: anonymous   Login
Location: Unspecified
(0.0000°N, 0.0000°E)
Time: 03:42:57
(UTC+02:00)
Language:

Cosmos 1295 Rocket - Orbit

View from above orbital plane
View from above orbital plane
View from above satellite
View from above satellite

Ground track
Ground track

The orbit data is extracted from the following two-line orbital elements,

1 12682U 81077B   15111.48908139  .00000123  00000-0  10627-3 0  9998
2 12682 082.9168 245.2477 0034673 035.3678 007.9258 13.78495353694346
Epoch (UTC): 21 April 2015 11:44:16
Eccentricity: 0.0034673
inclination: 82.9168°
perigee height: 944 km
apogee height: 995 km
right ascension of ascending node: 245.2477°
argument of perigee: 35.3678°
revolutions per day: 13.78495353
mean anomaly at epoch: 7.9258°
orbit number at epoch: 69434

The dashed part of the orbit path shows where the satellite is in the earth's shadow,  

DLR